Location: Birkenwerder
(52.6919°N, 13.2774°E)
Time: 13:00:06
(UTC+00:00)

In-Cosmos 22 Rocket - Pass Details

Date: 07 June 2020
Orbit: 790 x 888 km, 81.2° (Epoch: 11 July)

Event Time Altitude Azimuth Distance (km) Brightness Sun altitude
Exits shadow 01:30:56 - 190° (S) 2,687 6.2 -8.2°
Reaches altitude 10° 01:31:31 10° 190° (S) 2,462 6.1 -8.1°
Maximum altitude 01:37:06 87° 103° (ESE) 837 4.2 -7.7°
Drops below altitude 10° 01:42:34 10° 14° (NNE) 2,414 7.9 -7.2°
Sets 01:44:56 0° 14° (NNE) 3,338 8.8 -7.0°
